This is the latest recevied weather packets stored in our database for station/object iw0uwf-4. If no packets are shown the sender has not sent any weather packets the latest 1 day(s).
| Time | Temp. | Humidity | Pressure | Rain* | Wind** | Luminosity | Snow |
|---|---|---|---|---|---|---|---|
| 1778030104 | 15° C | 71% | 1003.7 hPa | 0 mm | 3.13 m/s, 243° | 0 W/m² | - |
| 1778030044 | 15° C | 71% | 1003.8 hPa | 0 mm | 3.13 m/s, 253° | 0 W/m² | - |
| 1778029984 | 15° C | 71% | 1003.8 hPa | 0 mm | 3.58 m/s, 259° | 0 W/m² | - |
| 1778029924 | 15° C | 71% | 1003.8 hPa | 0 mm | 3.58 m/s, 263° | 0 W/m² | - |
| 1778029804 | 15° C | 71% | 1003.7 hPa | 0 mm | 3.58 m/s, 263° | 0 W/m² | - |
| 1778029684 | 15° C | 71% | 1003.7 hPa | 0 mm | 3.58 m/s, 276° | 0 W/m² | - |
| 1778029563 | 15° C | 71% | 1003.7 hPa | 0 mm | 3.58 m/s, 277° | 0 W/m² | - |
| 1778029503 | 15° C | 71% | 1004 hPa | 0 mm | 4.02 m/s, 276° | 0 W/m² | - |
| 1778029444 | 15° C | 71% | 1003.8 hPa | 0 mm | 3.58 m/s, 268° | 0 W/m² | - |
| 1778029383 | 15° C | 71% | 1003.8 hPa | 0 mm | 3.58 m/s, 268° | 0 W/m² | - |
| 1778029323 | 15° C | 71% | 1003.8 hPa | 0 mm | 3.58 m/s, 264° | 0 W/m² | - |
| 1778029263 | 15° C | 71% | 1003.8 hPa | 0 mm | 3.58 m/s, 257° | 0 W/m² | - |
| 1778029203 | 15° C | 71% | 1003.6 hPa | 0 mm | 3.58 m/s, 263° | 0 W/m² | - |
| 1778029143 | 15° C | 71% | 1003.7 hPa | 0 mm | 4.02 m/s, 242° | 0 W/m² | - |
| 1778029083 | 15° C | 72% | 1003.7 hPa | 0 mm | 4.02 m/s, 252° | 0 W/m² | - |
| 1778029023 | 15° C | 72% | 1003.8 hPa | 0 mm | 4.02 m/s, 287° | 0 W/m² | - |
| 1778028963 | 15° C | 72% | 1003.8 hPa | 0 mm | 4.02 m/s, 267° | 0 W/m² | - |
| 1778028903 | 15° C | 72% | 1003.9 hPa | 0 mm | 3.58 m/s, 295° | 0 W/m² | - |
| 1778028843 | 15° C | 72% | 1003.7 hPa | 0 mm | 4.02 m/s, 296° | 0 W/m² | - |
| 1778028784 | 15° C | 72% | 1003.7 hPa | 0 mm | 4.02 m/s, 278° | 0 W/m² | - |
| 1778028724 | 15° C | 72% | 1003.6 hPa | 0 mm | 4.02 m/s, 263° | 0 W/m² | - |
| 1778028664 | 15° C | 71% | 1003.8 hPa | 0 mm | 4.02 m/s, 276° | 0 W/m² | - |
| 1778028604 | 15° C | 71% | 1003.8 hPa | 0 mm | 4.02 m/s, 270° | 0 W/m² | - |
| 1778028544 | 15° C | 71% | 1003.6 hPa | 0 mm | 3.58 m/s, 266° | 0 W/m² | - |
| 1778028484 | 15° C | 71% | 1003.8 hPa | 0 mm | 3.13 m/s, 252° | 0 W/m² | - |
* Rain latest hour (hover to see other rain measurements)
** Current wind speed in m/s (hover to see current wind gust speed)